Bakersfield, CA

7:38 PM PDT on August 31, 2016 (GMT -0700)
Meadows

Weather History for KBFL - December, 2013

Change the Weather History Date:

Tuesday, December 3, 2013

  Actual Average Record
Temperature  
Mean Temperature 54 °F 50 °F  
Max Temperature 66 °F 59 °F 83 °F (1979)
Min Temperature 41 °F 40 °F 27 °F (1908)
Degree Days  
Heating Degree Days 11    
Month to date heating degree days 29  
Since 1 July heating degree days 273  
Cooling Degree Days 0    
Month to date cooling degree days 0  
Year to date cooling degree days 2557  
Growing Degree Days 4 (Base 50)    
Moisture  
Dew Point 41 °F    
Average Humidity 67    
Maximum Humidity 83    
Minimum Humidity 51    
Precipitation  
Precipitation T in 0.02 in 0.60 in (1941)
Month to date precipitation T 0.07  
Year to date precipitation 3.33 5.52  
Since 1 July precipitation 0.97  
Snow  
Snow 0.00 in - - ()
Month to date snowfall 0.0  
Since 1 July snowfall 0.0  
Snow Depth 0.00 in    
Sea Level Pressure  
Sea Level Pressure 29.83 in    
Wind  
Wind Speed 8 mph (North)    
Max Wind Speed 26 mph    
Max Gust Speed 31 mph    
Visibility 7 miles    
Events Rain    
T = Trace of Precipitation, MM = Missing Value Source: NWS Daily Summary

Daily Weather History Graph

Daily Weather History Graph

Search for Another Location

Airport or City:

Trip Planner

Search our weather history database for the weather conditions in past years. The results will help you decide how hot, cold, wet, or windy it might be!

Date:

Astronomy

Dec. 03, 2013 Rise Set
Actual Time 6:48 AM PST 4:43 PM PST
Civil Twilight 6:20 AM PST 5:11 PM PST
Nautical Twilight 5:49 AM PST 5:42 PM PST
Astronomical Twilight 5:18 AM PST 6:13 PM PST
Moon 7:24 AM PST (12/3) 5:51 PM PST (12/3)
Length of Visible Light 10h 50m
Length of Day
9h 54m
New Moon, 1% of the Moon is Illuminated
Dec 3
New Moon
Dec 9
First Quarter
Dec 17
Full
Dec 25
Last Quarter
Jan 1
New

Hourly Weather History & Observations

Time (PST) Temp. Windchill Dew Point Humidity Pressure Visibility Wind Dir Wind Speed Gust Speed Precip Events Conditions
12:54 AM 48.0 °F - 37.9 °F 68% 29.92 in 9.0 mi North 3.5 mph - N/A   Clear
1:54 AM 45.0 °F 43.5 °F 39.0 °F 80% 29.91 in 6.0 mi NNW 3.5 mph - N/A   Haze
2:54 AM 44.1 °F 42.5 °F 39.0 °F 82% 29.91 in 6.0 mi SW 3.5 mph - N/A   Haze
3:54 AM 44.1 °F 41.5 °F 39.0 °F 82% 29.91 in 4.0 mi SSE 4.6 mph - N/A   Haze
4:54 AM 44.1 °F 42.5 °F 39.0 °F 82% 29.91 in 6.0 mi ESE 3.5 mph - N/A   Haze
5:54 AM 44.1 °F 40.8 °F 39.0 °F 82% 29.91 in 7.0 mi SE 5.8 mph - N/A   Clear
6:54 AM 45.0 °F 42.6 °F 39.0 °F 80% 29.91 in 6.0 mi ESE 4.6 mph - N/A   Haze
7:54 AM 48.0 °F - 39.9 °F 74% 29.90 in 4.0 mi ESE 6.9 mph - N/A   Haze
8:54 AM 50.0 °F - 41.0 °F 71% 29.90 in 3.0 mi SE 5.8 mph - N/A   Haze
9:54 AM 55.0 °F - 43.0 °F 64% 29.87 in 3.0 mi ESE 4.6 mph - N/A   Haze
10:54 AM 59.0 °F - 43.0 °F 55% 29.85 in 3.0 mi Calm Calm - N/A   Haze
11:54 AM 61.0 °F - 43.0 °F 52% 29.81 in 4.0 mi Calm Calm - N/A   Haze
12:54 PM 64.0 °F - 46.0 °F 52% 29.77 in 7.0 mi Calm Calm - N/A   Mostly Cloudy
1:54 PM 64.0 °F - 46.0 °F 52% 29.75 in 9.0 mi NNW 10.4 mph - N/A   Overcast
2:54 PM 63.0 °F - 46.9 °F 56% 29.73 in 10.0 mi NNW 9.2 mph - N/A   Clear
3:54 PM 61.0 °F - 46.9 °F 60% 29.73 in 9.0 mi North 9.2 mph - N/A   Overcast
4:54 PM 59.0 °F - 48.0 °F 67% 29.73 in 7.0 mi North 16.1 mph - N/A   Overcast
5:47 PM 55.0 °F - 46.0 °F 72% 29.74 in 7.0 mi North 19.6 mph - N/A   Overcast
5:54 PM 54.0 °F - 46.0 °F 75% 29.74 in 7.0 mi North 21.9 mph 28.8 mph N/A   Overcast
6:04 PM 54.0 °F - 46.0 °F 75% 29.75 in 6.0 mi North 21.9 mph 31.1 mph N/A   Haze
6:26 PM 53.1 °F - 46.0 °F 77% 29.76 in 6.0 mi NNW 17.3 mph - 0.00 in Rain Light Rain
6:54 PM 52.0 °F - 41.0 °F 66% 29.78 in 8.0 mi NW 17.3 mph - 0.00 in   Overcast
7:54 PM 50.0 °F - 41.0 °F 71% 29.81 in 10.0 mi NW 15.0 mph - 0.00 in   Overcast
8:54 PM 50.0 °F - 36.0 °F 59% 29.83 in 10.0 mi NW 15.0 mph - N/A   Overcast
9:54 PM 48.9 °F - 35.1 °F 59% 29.86 in 10.0 mi NW 12.7 mph - N/A   Overcast
10:54 PM 45.0 °F 41.2 °F 32.0 °F 60% 29.88 in 10.0 mi WNW 6.9 mph - N/A   Clear
11:54 PM 43.0 °F - 32.0 °F 65% 29.89 in 10.0 mi Calm Calm - N/A   Scattered Clouds